"Pseudo-MPEC" for P110Kwv

Created 2020 May 23 15:07:14 UT using Find_Orb

Click here for an explanation of pseudo-MPECs

 
 Astrometry: 
     P110Kwv  C2020 05 21?YpXj6a:GpHpcLrxfWAstrometryYAks.redacted;()f-8_iX?9F51
     P110Kwv  C2020 05 216c)RW+!i'6clickhmmhere!49twAW=)pr(uer_oJpMvUE@]\b*)cF51
     P110Kwv  C2020 05 21sv8pI3!sis!e8t$foraxt;KqqK7.-Sljegexplanation.5_2`+lF51
     P110Kwv  C2020 05 22.45482 19 53 06.28 -29 35 02.4    ~5MBM 21.4 GVNEOCPI52
     P110Kwv  C2020 05 22.45658 19 53 07.07 -29 35 11.8    ~5MBM 20.5 GVNEOCPI52
     P110Kwv  C2020 05 22.45833 19 53 07.85 -29 35 22.8    ~5MBM 20.8 GVNEOCPI52
     P110Kwv  C2020 05 22.46008 19 53 08.47 -29 35 30.0    ~5MBM       VNEOCPI52
     P110Kwv ^C2020 05 22.59259419 54 12.836-29 47 59.02   ~5MHq 20.90GVNEOCP568
     P110Kwv ^C2020 05 22.59353919 54 13.265-29 48 04.43   ~5MHq 20.85GVNEOCP568
     P110Kwv ^C2020 05 22.59448819 54 13.694-29 48 09.85   ~5MHq 20.70GVNEOCP568
     P110Kwv ^C2020 05 22.59547219 54 14.143-29 48 15.53   ~5MHq 20.66GVNEOCP568
     P110Kwv  C2020 05 23.42448 20 01 20.82 -31 09 56.8    ~5NAb 19.3 GVNEOCPI52
     P110Kwv  C2020 05 23.42592 20 01 21.52 -31 10 03.2    ~5NAb       VNEOCPI52
     P110Kwv  C2020 05 23.42735 20 01 22.30 -31 10 12.2    ~5NAb 19.9 GVNEOCPI52

Station data:
(568) Mauna Kea  (N19.826116 W155.472200)  US/Hawaii.
(F51) Pan-STARRS 1, Haleakala  (N20.707235 W156.255910)  US/Hawaii.
   Observers N. Primak, A. Schultz, S. Watters, J. Thiel, T. Goggia. Measurer
   PS1 Science Consortium. 1.8-m Ritchey-Chrétien + CCD.
(I52) Steward Observatory, Mt. Lemmon Station  (N32.442547 W110.788920)
   US/Arizona.  Observers T. A. Pruyne, B. M. Africano, E. J. Christensen, G.
   A. Farneth, D. C. Fuls, A. R. Gibbs, A. D. Grauer, H. Gröller, J. A.
   Johnson, R. A. Kowalski, S. M. Larson, G. J. Leonard, D. Rankin, R. L.
   Seaman, F. C. Shelly. 1.0-m reflector + CCD.

Orbital elements:  P110Kwv
   Perihelion 2020 Aug 25.586278 +/- 1.24 TT = 14:04:14 (JD 2459087.086278)
Epoch 2020 May 23.0 TT = JDT 2458992.5   Earth MOID: 0.0535   Ve: 0.0063
M 263.01739820 +/- 1.9              (J2000 ecliptic)          AutoNEOCP
n   1.02533478 +/- 0.00704          Peri.  312.23352 +/- 0.6
a   0.97399991 +/- 0.00447          Node    62.10152 +/- 0.20
e   0.2931065 +/- 0.00974           Incl.   11.93273 +/- 0.50
P   0.96/351.10d           H 23.6   G  0.15   U  9.4  
q 0.68851418 +/- 0.00636    Q 1.25948565 +/- 0.0152
From 14 observations 2020 May 21-23 (45.1 hr); mean residual 0".69
Residuals in arcseconds: 
200521 F51  .37+  .07-    200522 I52  .26+  .91-    200522 568  .13+  .16-    
200521 F51  .12+  .07+    200522 I52  2.0-  1.8+    200523 I52  .00   1.5-    
200521 F51  .41-  .04+    200522 568  .18+  .15-    200523 I52  .36-  .93+    
200522 I52  .48+  .50-    200522 568  .16+  .14-    200523 I52  .37+  .69+    
200522 I52  .41+  .12+    200522 568  .12+  .12-    

Ephemerides (geocentric):
Date (UTC) HH   RA              Dec         delta   r     elong  mag " sig PA
---- -- -- --  -------------   -----------  ------ ------ -----  --- ---- ---
2020 05 23 15  20 03 08.135   -31 29 10.21  .11041 1.0806 125.5 20.8 2.87 164
2020 05 23 16  20 03 31.062   -31 33 26.56  .11021 1.0804 125.5 20.8 2.92 163
2020 05 23 17  20 03 54.098   -31 37 43.62  .11001 1.0802 125.5 20.8 2.97 163
2020 05 23 18  20 04 17.243   -31 42 01.37  .10980 1.0800 125.4 20.8 3.02 162
2020 05 23 19  20 04 40.499   -31 46 19.81  .10960 1.0799 125.4 20.8 3.07 161
2020 05 23 20  20 05 03.866   -31 50 38.95  .10940 1.0797 125.3 20.8 3.13 160
2020 05 23 21  20 05 27.344   -31 54 58.78  .10920 1.0795 125.3 20.8 3.18 160
2020 05 23 22  20 05 50.936   -31 59 19.31  .10900 1.0793 125.3 20.8 3.24 159
2020 05 23 23  20 06 14.640   -32 03 40.54  .10880 1.0792 125.2 20.8 3.30 158
2020 05 24 00  20 06 38.459   -32 08 02.45  .10860 1.0790 125.2 20.8 3.36 158
2020 05 24 01  20 07 02.393   -32 12 25.06  .10840 1.0788 125.1 20.8 3.43 157
2020 05 24 02  20 07 26.442   -32 16 48.35  .10820 1.0786 125.1 20.8 3.50 156
2020 05 24 03  20 07 50.608   -32 21 12.34  .10800 1.0784 125.1 20.8 3.57 155
2020 05 24 04  20 08 14.892   -32 25 37.02  .10781 1.0783 125.0 20.8 3.64 155
2020 05 24 05  20 08 39.293   -32 30 02.38  .10761 1.0781 125.0 20.8 3.71 154
2020 05 24 06  20 09 03.814   -32 34 28.44  .10741 1.0779 124.9 20.7 3.79 153
2020 05 24 07  20 09 28.454   -32 38 55.18  .10721 1.0777 124.9 20.7 3.86 153
2020 05 24 08  20 09 53.215   -32 43 22.60  .10702 1.0775 124.9 20.7 3.94 152
2020 05 24 09  20 10 18.097   -32 47 50.71  .10682 1.0774 124.8 20.7 4.03 151
2020 05 24 10  20 10 43.101   -32 52 19.50  .10663 1.0772 124.8 20.7 4.11 151
2020 05 24 11  20 11 08.229   -32 56 48.97  .10643 1.0770 124.7 20.7 4.20 150
2020 05 24 12  20 11 33.480   -33 01 19.12  .10624 1.0768 124.7 20.7 4.29 149
2020 05 24 13  20 11 58.857   -33 05 49.94  .10604 1.0766 124.6 20.7 4.38 149
2020 05 24 14  20 12 24.359   -33 10 21.45  .10585 1.0765 124.6 20.7 4.47 148
2020 05 24 15  20 12 49.987   -33 14 53.63  .10566 1.0763 124.5 20.7 4.57 148
2020 05 24 16  20 13 15.743   -33 19 26.48  .10546 1.0761 124.5 20.7 4.67 147
2020 05 24 17  20 13 41.627   -33 24 00.01  .10527 1.0759 124.4 20.7 4.77 146
2020 05 24 18  20 14 07.640   -33 28 34.20  .10508 1.0757 124.4 20.7 4.88 146
2020 05 24 19  20 14 33.784   -33 33 09.06  .10489 1.0756 124.4 20.7 4.98 145
2020 05 24 20  20 15 00.058   -33 37 44.59  .10470 1.0754 124.3 20.7 5.09 145
2020 05 24 21  20 15 26.464   -33 42 20.78  .10451 1.0752 124.3 20.7 5.21 144
2020 05 24 22  20 15 53.002   -33 46 57.63  .10432 1.0750 124.2 20.7 5.32 144
2020 05 24 23  20 16 19.675   -33 51 35.14  .10413 1.0748 124.2 20.7 5.44 143
2020 05 25 00  20 16 46.482   -33 56 13.31  .10394 1.0747 124.1 20.7 5.56 143
2020 05 25 01  20 17 13.424   -34 00 52.13  .10375 1.0745 124.1 20.7 5.68 142
2020 05 25 02  20 17 40.503   -34 05 31.61  .10356 1.0743 124.0 20.7 5.81 142
2020 05 25 03  20 18 07.719   -34 10 11.74  .10338 1.0741 124.0 20.7 5.93 141
2020 05 25 04  20 18 35.073   -34 14 52.51  .10319 1.0739 123.9 20.7 6.06 141
2020 05 25 05  20 19 02.567   -34 19 33.92  .10300 1.0738 123.9 20.7 6.20 140
2020 05 25 06  20 19 30.200   -34 24 15.98  .10282 1.0736 123.8 20.7 6.33 140
2020 05 25 07  20 19 57.975   -34 28 58.68  .10263 1.0734 123.8 20.7 6.47 139
2020 05 25 08  20 20 25.892   -34 33 42.01  .10245 1.0732 123.7 20.7 6.61 139
2020 05 25 09  20 20 53.952   -34 38 25.98  .10226 1.0730 123.7 20.7 6.76 138
2020 05 25 10  20 21 22.156   -34 43 10.57  .10208 1.0729 123.6 20.7 6.90 138
2020 05 25 11  20 21 50.506   -34 47 55.79  .10189 1.0727 123.5 20.7 7.05 137
2020 05 25 12  20 22 19.001   -34 52 41.63  .10171 1.0725 123.5 20.7 7.20 137
2020 05 25 13  20 22 47.643   -34 57 28.10  .10153 1.0723 123.4 20.7 7.36 137
2020 05 25 14  20 23 16.433   -35 02 15.18  .10134 1.0721 123.4 20.7 7.52 136